Location: Sungai Ketit
(2.6833°N, 113.2333°E)
Time: 01:26:45
(UTC+00:00)

ADEOS Rocket - Pass Details

Date: 23 May 2024
Orbit: 857 x 1306 km, 98.7° (Epoch: 22 May)

Event Time Altitude Azimuth Distance (km) Brightness Sun altitude
Rises 11:22:40 0° 169° (S) 3,467 5.6 -12.7°
Reaches altitude 10° 11:24:58 10° 170° (S) 2,556 4.9 -13.3°
Maximum altitude 11:30:38 83° 257° (WSW) 950 3.0 -14.6°
Drops below altitude 10° 11:36:51 10° 345° (NNW) 2,787 5.9 -16.0°
Sets 11:39:27 0° 346° (NNW) 3,802 6.6 -16.6°
